Location: Crevalcore
(44.7167°N, 11.1500°E)
Time: 20:18:56
(UTC+00:00)

Daily predictions for brighter satellites

Satellite Brightness Start Highest point End
(mag) Time Altitude Azimuth Time Altitude Azimuth Time Altitude Azimuth
CZ-4C R/B 4.3 18:51:28 10° NNW 18:56:57 25° NNE 19:03:10 10° E
OE (NEXTSAT) 4.4 18:58:06 10° W 19:01:34 83° N 19:05:03 10° ENE
Sich 1 4.3 18:58:28 10° NNE 19:01:59 24° ENE 19:05:31 10° SE
MOS 1 4.4 19:02:24 10° SSE 19:07:59 67° ENE 19:13:38 10° N
Lacrosse 5 rocket 4.3 19:10:11 10° WSW 19:11:10 11° WSW 19:12:08 10° SW
MOS 1-B Rocket 4.4 19:05:17 10° NNE 19:12:59 74° ESE 19:19:28 10° S
SJ-6B 3.3 19:15:20 10° S 19:19:08 63° W 19:23:04 10° NNW
Cosmos 2278 Rocket 4.1 19:24:22 10° ESE 19:25:06 10° E 19:25:51 10° E
SL-08 ROCKET BODY 4.3 19:19:44 10° N 19:25:41 82° E 19:31:31 10° S
Terra 4.1 19:25:41 10° ENE 19:26:34 10° NE 19:27:26 10° NE
USA 290 3.5 19:25:15 10° N 19:28:07 28° ENE 19:30:10 15° ESE
Ariane Rocket 3.0 19:23:45 10° SSE 19:28:48 86° WSW 19:33:54 10° NNW
Cosmos 2263 Rocket 4.5 19:27:23 10° WSW 19:32:10 29° NW 19:37:00 10° N
FALCON 9 DEB 3.4 19:30:36 10° WNW 19:33:34 49° SW 19:35:41 17° SSE
IRIS 4.3 19:31:31 10° WSW 19:33:47 38° S 19:35:32 18° ESE
Cosmos 1606 2.9 19:30:50 10° SSW 19:34:34 74° W 19:38:22 10° N
CZ-2C R/B 4.4 19:31:23 10° NNE 19:35:27 33° E 19:39:19 11° SSE
Cosmos 1844 Rocket 2.6 19:31:08 10° SSW 19:36:41 78° ESE 19:42:17 10° NNE
SPOT 1/Viking Rocket 4.2 19:36:09 14° SE 19:40:08 40° ENE 19:44:57 10° N
MetOp-B 4.5 19:36:53 14° SE 19:41:22 51° ENE 19:46:34 10° N
SL-4 R/B 2.5 19:37:52 10° WNW 19:42:12 59° SW 19:45:35 18° SE
Cosmos 1805 Rocket 3.5 19:39:04 10° N 19:43:25 84° ENE 19:47:34 11° S
Cosmos 1386 Rocket 4.4 19:39:12 10° N 19:45:14 78° E 19:51:19 10° SSE
Cosmos 1354 Rocket 4.4 19:40:26 10° S 19:45:21 43° ESE 19:50:17 10° NNE
X-37B 0.6 19:42:19 10° W 19:45:32 83° N 19:47:53 17° E
ARIANE 5 R/B 3.8 19:43:07 16° ESE 19:45:35 27° ENE 19:49:14 10° N
Cosmos 1633 Rocket 3.7 19:47:45 10° N 19:51:53 38° ENE 19:54:17 21° SE
Cosmos 1745 Rocket 4.0 19:46:14 10° N 19:52:29 89° E 19:58:37 10° S
SPOT 3 Rocket 3.5 19:49:00 13° SSE 19:53:35 83° ENE 19:58:46 10° NNW
Cosmos 1437 4.3 19:54:17 16° ENE 19:54:17 16° ENE 19:55:45 10° NE
Cosmos 1709 Rocket 4.1 19:49:17 10° N 19:55:19 56° ENE 19:59:47 18° SSE
Resurs 1-3 4.4 19:51:38 10° S 19:55:52 48° W 20:00:09 10° NNW
Landsat 7 3.8 19:52:36 16° SSE 19:56:23 76° ENE 20:01:10 10° N
Cosmos 1844 3.7 19:51:09 10° SSW 19:56:54 90° WNW 20:02:37 10° NNE
Cosmos 1812 4.3 19:56:30 17° E 19:56:54 18° E 19:59:32 10° NE
Cosmos 968 Rocket 4.1 19:52:30 10° SSW 19:57:42 60° WNW 20:02:53 10° NNE
BREEZE-M DEB (TANK) 4.0 19:55:10 10° WNW 19:59:28 80° SSW 20:06:55 15° ESE
ATLAS 5 CENTAUR R/B 2.5 19:55:42 10° NNW 20:01:16 67° NE 20:05:41 21° SE
NOSS 3-3 (A) 4.1 19:56:27 10° S 20:01:45 43° ESE 20:07:42 10° NE
NOSS 3-3 (C) 4.1 19:56:33 10° S 20:01:52 43° ESE 20:07:49 10° NE
Cosmos 1328 Rocket 4.1 19:59:49 22° SE 20:02:06 39° E 20:06:14 10° NNE
Cosmos 1486 Rocket 4.5 19:59:55 10° SSW 20:05:13 65° WNW 20:10:32 10° NNE
IGS 5A 3.6 20:04:31 17° S 20:07:39 71° WSW 20:11:49 10° NNW
Meteor 1-26 Rocket 4.2 20:02:16 11° S 20:07:48 64° E 20:13:18 10° NNE
CARTOSAT-1 4.2 20:07:02 26° ESE 20:08:58 41° ENE 20:13:01 10° N
Cosmos 2315 Rocket 4.1 20:04:39 12° S 20:10:25 64° E 20:16:44 10° NNE
Cosmos 1833 Rocket 3.7 20:05:47 10° N 20:10:52 33° NE 20:14:00 20° ESE
CRYOSAT 2 4.4 20:07:53 21° SSE 20:11:04 67° E 20:15:57 10° N
S3M 4.3 20:04:51 10° SSW 20:11:12 71° W 20:17:34 10° N
BREEZE-M R/B 2.2 20:10:47 10° WSW 20:13:19 59° NNW 20:15:12 15° ENE
Cosmos 1666 4.2 20:14:03 10° NNE 20:16:54 20° ENE 20:17:20 20° E
Cosmos 1666 Rocket 3.5 20:13:07 10° N 20:17:33 88° E 20:19:57 26° S
Meteor 2-17 Rocket 4.4 20:14:26 10° N 20:20:39 90° W 20:25:05 20° S
Cosmos 1933 4.0 20:17:44 10° SSW 20:21:42 54° WNW 20:25:40 10° N
USA 245 2.2 20:23:48 66° N 20:23:48 66° N 20:25:48 10° NNW
Iridium 4 Rocket 4.4 20:22:02 27° SE 20:24:20 38° E 20:29:43 10° NNE
Cosmos 783 Rocket 4.4 20:21:39 10° NNW 20:26:56 80° ENE 20:29:28 31° SSE
Cosmos 1242 Rocket 3.3 20:24:03 12° SSW 20:27:16 51° WNW 20:30:46 10° N
BREEZE M DEB (TANK) 2.8 20:29:07 10° WNW 20:33:16 39° N 20:34:07 28° NE
Resurs 01 Rocket 3.0 20:29:42 12° SSW 20:33:18 34° W 20:37:22 10° NNW
Cosmos 773 Rocket 4.0 20:29:25 10° NNW 20:34:46 74° ENE 20:37:01 35° SE
Spot 2 Rocket 3.4 20:34:12 31° SSE 20:36:44 88° WSW 20:41:48 10° NNW
SJ 16-02 2.4 20:38:19 29° E 20:38:19 29° E 20:41:50 10° NE
OE (NEXTSAT) 4.4 20:35:43 10° W 20:39:12 74° N 20:39:58 50° ENE
Cosmos 2228 Rocket 4.4 20:40:06 24° E 20:40:06 24° E 20:43:33 10° NE
DELTA 2 R/B (1) 4.2 20:35:35 10° W 20:40:38 36° SSW 20:41:52 32° S
COSMOS 2406 3.5 20:35:51 10° NNW 20:41:26 54° ENE 20:43:43 33° ESE
Meteor 2-6 Rocket 4.2 20:41:14 35° SSE 20:43:15 56° E 20:48:36 10° NNE
Cosmos 2082 Rocket 3.3 20:39:06 10° N 20:44:05 31° NE 20:46:28 23° E
USA 306 4.4 20:40:37 10° NW 20:44:30 33° NNE 20:47:01 18° ENE
Cosmos 1782 3.5 20:43:16 21° SSW 20:45:46 53° W 20:49:41 10° N
Cosmos 1500 3.0 20:42:44 10° N 20:46:31 87° W 20:47:10 59° S
CZ-4C R/B 3.1 20:39:33 10° NW 20:46:45 69° NE 20:51:18 29° SE
ERS-1 Rocket 2.9 20:50:52 41° SSE 20:52:40 86° ENE 20:57:42 10° NNW
SPOT 5 2.9 20:52:52 42° SSE 20:54:38 88° E 20:59:53 10° NNW
H-2A R/B 3.5 20:53:32 10° NNE 20:57:41 56° E 20:57:49 55° ESE
Cosmos 1271 Rocket 3.2 21:00:22 47° ENE 21:00:22 47° ENE 21:03:56 10° NNE
Meteor 1-11 Rocket 4.2 20:55:10 10° N 21:00:59 50° ENE 21:02:44 38° ESE
Cosmos 1151 Rocket 4.3 20:58:03 15° SW 21:01:16 39° WNW 21:05:24 10° N
Cosmos 1777 Rocket 3.9 20:58:39 27° SSW 21:01:33 88° WNW 21:06:48 10° NNE
Terra 1.7 21:02:23 53° SE 21:03:27 77° ENE 21:08:14 10° N
Cosmos 2278 Rocket 2.1 21:05:44 36° S 21:08:09 75° ESE 21:13:48 10° NNE
USA 307 4.0 21:05:55 10° NW 21:09:58 40° NNE 21:11:26 30° ENE
Cosmos 1340 Rocket 4.4 21:10:58 10° NNE 21:14:05 24° ENE 21:14:05 24° ENE
Cosmos 1515 Rocket 4.1 21:17:35 39° SW 21:18:56 56° W 21:23:17 10° N
Cosmos 2084 4.1 21:17:53 13° WSW 21:21:23 53° NW 21:25:34 10° NNE
ARIANE 5 R/B 4.0 21:20:39 26° SW 21:21:57 31° W 21:25:49 10° NNW
X-37B 2.9 21:19:01 10° W 21:20:10 20° W 21:20:10 20° W
USA 308 3.7 21:19:22 10° NW 21:23:31 46° NNE 21:24:24 40° ENE
Cosmos 1869 Rocket 3.7 21:19:43 10° N 21:23:54 57° ENE 21:23:54 57° ENE
Cosmos 1536 3.4 21:20:17 10° N 21:23:48 46° ENE 21:23:48 46° ENE
Meteor 1-10 Rocket 4.1 21:22:59 45° SSW 21:24:48 85° W 21:30:28 10° N
Cosmos 1943 Rocket 3.8 21:30:25 19° E 21:30:25 19° E 21:33:14 10° NE
Cosmos 2154 Rocket 3.9 21:25:02 10° N 21:31:24 78° E 21:33:02 52° SSE
Cosmos 1812 4.1 21:31:31 29° WSW 21:32:24 33° WNW 21:35:56 10° N
ALOS 2 4.4 21:38:42 21° ENE 21:38:50 21° ENE 21:42:06 10° NNE
Cosmos 2184 Rocket 4.2 21:33:11 10° NNW 21:39:22 65° W 21:41:19 43° SSW
Cosmos 990 Rocket 4.4 21:40:01 48° E 21:40:01 48° E 21:44:40 10° NNE
Cosmos 1707 Rocket 4.4 21:42:54 39° ENE 21:42:54 39° ENE 21:46:15 10° NNE
NOSS 3-4 (A) 3.8 21:37:24 10° NW 21:44:27 81° NE 21:47:02 46° SE
NOSS 3-4 (C) 3.8 21:37:30 10° NW 21:44:33 81° NE 21:47:09 46° SE
ATLAS 5 CENTAUR R/B 3.8 21:40:54 10° WNW 21:45:45 26° WSW 21:47:13 24° SW
Cosmos 2074 Rocket 4.4 21:41:10 10° NNW 21:47:17 55° W 21:49:23 38° SW
Cosmos 962 Rocket 4.5 21:44:43 10° N 21:50:48 64° E 21:51:48 56° ESE
Cosmos 1666 4.3 21:49:16 10° NNW 21:52:11 27° W 21:52:11 27° W
Cosmos 2112 Rocket 4.3 21:48:01 10° NNW 21:53:18 56° ENE 21:53:50 53° E
Nadezhda 1 Rocket 4.1 21:51:52 47° SSW 21:53:48 75° W 22:00:05 10° N
Cosmos 1833 Rocket 3.3 21:49:36 10° NW 21:54:54 42° WSW 21:55:42 40° SW
Cosmos 1238 Rocket 4.1 21:50:58 10° N 21:57:09 51° ENE 21:57:51 48° E
Cosmos 1743 3.7 21:54:05 10° N 21:56:52 42° NNE 21:56:52 42° NNE
ATLAS 2AS CENTAUR R/B 3.0 21:50:45 10° NNW 21:58:06 63° NE 22:00:32 41° ESE
USA 215 4.1 21:55:02 15° E 22:00:14 47° NNE 22:06:25 10° NW
Cosmos 2297 4.0 22:03:58 52° E 22:03:58 52° E 22:09:07 10° NE
USA 305 3.5 22:01:21 10° NW 22:04:41 53° NW 22:04:41 53° NW
Cosmos 2181 Rocket 4.1 22:07:22 53° ESE 22:07:52 54° E 22:13:49 10° NNE
SJ 16-02 3.0 22:15:15 25° W 22:16:31 29° WNW 22:20:24 10° N
Cosmos 1733 Rocket 3.6 22:12:32 10° N 22:16:02 54° NNE 22:16:02 54° NNE
Cosmos 2228 Rocket 4.4 22:17:34 31° W 22:18:01 32° WNW 22:22:01 10° N
Meteor 1-27 Rocket 4.4 22:18:37 39° WSW 22:20:13 49° WNW 22:25:57 10° N
Cosmos 1680 Rocket 3.5 22:16:10 10° NNW 22:21:27 75° W 22:21:27 75° W
Cosmos 2341 Rocket 3.9 22:15:46 10° N 22:22:12 85° W 22:23:08 67° S
Cosmos 2366 rocket 4.0 22:17:16 10° N 22:23:25 64° E 22:24:07 60° ESE
Cosmos 1937 Rocket 3.6 22:24:06 63° ENE 22:24:06 63° ENE 22:28:39 10° NNE
USA 306 4.2 22:20:29 10° WNW 22:23:04 35° WNW 22:23:04 35° WNW
Cosmos 1818 4.2 22:21:25 10° NNW 22:26:45 49° NE 22:27:40 44° E
Cosmos 967 Rocket 4.3 22:27:43 70° SE 22:27:57 71° ESE 22:34:12 10° NE
Cosmos 2082 Rocket 2.7 22:23:00 10° NW 22:28:19 44° WSW 22:28:19 44° WSW
CZ-4C R/B 3.9 22:28:33 10° NW 22:35:11 34° WSW 22:36:28 32° SW
Cosmos 858 Rocket 4.5 22:37:14 77° NE 22:37:14 77° NE 22:42:06 10° NNE
Meteor 1-19 Rocket 4.0 22:40:49 86° NE 22:40:49 86° NE 22:46:08 10° N
Cosmos 2218 Rocket 3.8 22:35:08 10° N 22:41:26 89° E 22:42:06 74° S
Terra 4.2 22:41:15 12° W 22:41:46 12° W 22:43:47 10° WNW
Cosmos 489 Rocket 4.3 22:42:28 10° NNW 22:48:44 80° ENE 22:49:22 71° SE
Cosmos 1461 4.4 22:53:28 33° ENE 22:53:28 33° ENE 22:56:14 10° NE
Cosmos 2278 Rocket 4.4 22:48:39 10° W 22:52:51 21° NW 22:57:05 10° N
Cosmos 1862 Rocket 4.4 22:57:00 45° NW 22:57:00 45° NW 23:00:23 10° N
Cosmos 1898 Rocket 4.3 22:57:39 42° W 22:58:22 45° WNW 23:03:29 10° N
Nadezhda 3 Rocket 4.3 23:02:11 51° ESE 23:02:39 52° E 23:08:40 10° NNE
Cosmos 2369 Rocket 2.3 23:03:27 60° E 23:03:27 60° E 23:08:34 10° NNE
COBE Rocket 4.1 23:07:04 68° NW 23:07:04 68° NW 23:11:41 10° NNW
RESURS DK-1 4.0 23:06:21 10° N 23:09:53 30° NE 23:09:53 30° NE
SL-8 Rocket 4.5 23:04:56 10° NNW 23:10:57 47° W 23:11:34 46° WSW
Cosmos 1943 Rocket 2.4 23:11:55 59° W 23:12:24 62° WNW 23:17:59 10° NNE
Cosmos 1975 4.4 23:09:49 10° NNW 23:12:12 32° NW 23:12:12 32° NW
ALOS 2 3.9 23:16:05 34° WNW 23:16:05 34° WNW 23:19:04 10° NNW
Cosmos 1867 4.3 23:18:57 43° E 23:18:57 43° E 23:23:13 10° NE
SL-08 R/B 4.3 23:12:56 10° N 23:19:09 83° W 23:19:37 76° SSW
Cosmos 1607 4.2 23:19:25 54° ESE 23:19:25 54° ESE 23:25:38 10° NE
DNEPR-1 R/B 4.4 23:19:56 56° W 23:20:35 60° NW 23:25:32 10° NNE
Meteor 2-4 Rocket 3.7 23:20:31 74° W 23:20:42 75° WNW 23:26:24 10° N
Cosmos 44 4.3 23:16:50 10° NW 23:20:48 40° WNW 23:20:48 40° WNW
Cosmos 2263 4.3 23:22:38 65° E 23:22:38 65° E 23:28:09 10° NNE
Okean 1-7 3.9 23:30:15 47° NNW 23:30:15 47° NNW 23:33:25 10° N
Cosmos 372 Rocket 4.3 23:30:36 55° WNW 23:30:36 55° WNW 23:35:33 10° NNE
ATLAS CENTAUR R/B 3.7 23:33:01 15° ENE 23:33:01 15° ENE 23:33:55 10° NE
Helios 1A 4.5 23:31:39 30° ENE 23:31:39 30° ENE 23:35:07 10° N
Cosmos 1125 Rocket 3.9 23:35:51 54° E 23:35:51 54° E 23:40:28 10° NNE
Sich 1 Rocket 4.4 23:31:36 10° N 23:35:34 47° ENE 23:35:34 47° ENE
SeaSat 1 2.5 23:33:34 10° NNE 23:38:19 72° NW 23:38:19 72° NW
Cosmos 1656 Rocket 3.6 23:39:04 75° E 23:39:04 75° E 23:44:21 10° NNE
Cosmos 2242 Rocket 4.5 23:40:22 44° NW 23:40:22 44° NW 23:43:52 10° N
Cosmos 494 Rocket 4.1 23:34:57 10° NNW 23:40:08 65° ENE 23:40:13 64° ENE
USA 215 3.1 23:42:21 66° S 23:43:02 71° SW 23:49:35 10° NW
Cosmos 2239 Rocket 4.3 23:37:53 10° N 23:44:12 86° W 23:44:52 73° S
Cosmos 1833 4.2 23:41:16 10° NNW 23:47:03 79° ENE 23:47:33 73° ESE
ATLAS 2AS CENTAUR R/B 3.7 23:42:26 10° NW 23:47:56 31° WSW 23:47:56 31° WSW
CZ-2D R/B 3.8 23:48:52 10° NE 23:53:04 22° E 23:53:55 22° ESE
